Location: Carrières
(48.9495°N, 2.0407°E)
Time: 17:47:56
(UTC+00:00)

Tiros 1 - Visible Passes

Search period start: 19 April 2024 00:00
Search period end: 29 April 2024 00:00
Orbit: 625 x 657 km, 48.4° (Epoch: 19 April)

Date Brightness Start Highest point End Pass type
(mag) Time Alt. Az. Time Alt. Az. Time Alt. Az.
19 Apr 8.0 01:31:05 38° ESE 01:31:05 38° ESE 01:34:09 10° E visible
19 Apr 7.0 03:08:36 22° W 03:11:35 85° S 03:16:12 10° E visible
20 Apr 7.0 01:53:50 74° SSE 01:53:50 74° SSE 01:58:18 10° E visible
20 Apr 7.0 03:31:21 11° W 03:35:44 80° S 03:40:19 10° ESE visible
21 Apr 9.2 00:39:06 18° E 00:39:06 18° E 00:40:23 10° E visible
21 Apr 7.0 02:16:37 49° W 02:17:49 85° S 02:22:26 10° E visible
21 Apr 7.1 03:55:15 10° W 03:59:49 63° SSW 04:04:21 10° ESE visible
22 Apr 8.3 01:01:53 34° E 01:01:53 34° E 01:04:31 10° E visible
22 Apr 7.0 02:39:24 26° W 02:41:57 82° S 02:46:34 10° E visible
23 Apr 7.2 01:24:43 64° E 01:24:43 64° E 01:28:39 10° E visible
23 Apr 7.0 03:02:15 15° W 03:06:03 66° SSW 03:10:36 10° ESE visible
24 Apr 9.5 00:10:06 14° E 00:10:06 14° E 00:10:44 10° E visible
24 Apr 6.9 01:47:37 69° WSW 01:48:10 83° S 01:52:46 10° E visible
24 Apr 7.4 03:25:37 10° W 03:30:02 46° SSW 03:34:25 10° SE visible
25 Apr 8.9 00:33:08 23° E 00:33:08 23° E 00:34:51 10° E visible
25 Apr 6.9 02:10:40 40° W 02:12:15 70° SSW 02:16:50 10° ESE visible
25 Apr 8.0 03:49:56 10° W 03:53:52 28° SSW 03:57:48 10° SSE visible
26 Apr 8.3 00:56:24 33° E 00:56:24 33° E 00:58:58 10° E visible
26 Apr 7.2 02:33:58 26° W 02:36:15 50° SSW 02:40:42 10° SE visible
27 Apr 7.9 01:20:07 38° ESE 01:20:07 38° ESE 01:23:02 10° ESE visible
27 Apr 7.8 02:57:42 19° W 03:00:07 31° SSW 03:04:10 10° SSE visible
27 Apr 8.2 20:33:19 10° SSW 20:36:59 23° SE 20:37:28 22° SE visible
27 Apr 9.0 22:13:53 10° WSW 22:15:11 18° WSW 22:15:11 18° WSW visible
28 Apr 8.3 01:44:34 29° SE 01:44:34 29° SE 01:46:56 10° SE visible
28 Apr 8.5 03:22:13 15° WSW 03:23:50 18° SW 03:26:55 10° S visible
28 Apr 7.6 20:56:25 10° SW 21:00:46 38° SSE 21:02:48 25° ESE visible
28 Apr 8.2 22:37:52 10° WSW 22:40:27 33° WSW 22:40:27 33° WSW visible
